This is the latest recevied weather packets stored in our database for station/object YU7IBS-1. If no packets are shown the sender has not sent any weather packets the latest 10 day(s).
| Time | Temp. | Humidity | Pressure | Rain* | Wind** | Luminosity | Snow |
|---|---|---|---|---|---|---|---|
| 1787530458 | 20.56° C | 46% | 1002.7 hPa | 0 mm | - | - | - |
| 1787529856 | 20.56° C | 46% | 1002.7 hPa | 0 mm | - | - | - |
| 1787529257 | 20.56° C | 46% | 1002.7 hPa | 0 mm | - | - | - |
| 1787528658 | 21.11° C | 45% | 1002.7 hPa | 0 mm | - | - | - |
| 1787528056 | 21.11° C | 45% | 1002.7 hPa | 0 mm | - | - | - |
| 1787527457 | 21.11° C | 45% | 1002.8 hPa | 0 mm | - | - | - |
| 1787526858 | 21.11° C | 45% | 1002.9 hPa | 0 mm | - | - | - |
| 1787526258 | 21.11° C | 45% | 1002.9 hPa | 0 mm | - | - | - |
| 1787525657 | 21.11° C | 45% | 1003 hPa | 0 mm | - | - | - |
| 1787525058 | 21.11° C | 45% | 1003 hPa | 0 mm | - | - | - |
| 1787524456 | 21.11° C | 46% | 1003 hPa | 0 mm | - | - | - |
| 1787523857 | 21.11° C | 46% | 1003 hPa | 0 mm | - | - | - |
| 1787523258 | 21.11° C | 46% | 1003 hPa | 0 mm | - | - | - |
| 1787522658 | 21.67° C | 47% | 1003 hPa | 0 mm | - | - | - |
| 1787522058 | 21.67° C | 48% | 1003 hPa | 0 mm | - | - | - |
| 1787520856 | 21.67° C | 48% | 1003 hPa | 0 mm | - | - | - |
| 1787520256 | 22.22° C | 48% | 1003 hPa | 0 mm | - | - | - |
| 1787519657 | 22.22° C | 49% | 1003 hPa | 0 mm | - | - | - |
| 1787519057 | 22.22° C | 50% | 1002.8 hPa | 0 mm | - | - | - |
| 1787518457 | 22.22° C | 47% | 1002.8 hPa | 0 mm | - | - | - |
| 1787517856 | 22.22° C | 43% | 1002.7 hPa | 0 mm | - | - | - |
| 1787517258 | 22.78° C | 42% | 1002.7 hPa | 0 mm | - | - | - |
| 1787516658 | 23.33° C | 40% | 1002.5 hPa | 0 mm | - | - | - |
| 1787516059 | 23.33° C | 41% | 1002.7 hPa | 0 mm | - | - | - |
| 1787515456 | 23.33° C | 42% | 1002.7 hPa | 0 mm | - | - | - |
* Rain latest hour (hover to see other rain measurements)
** Current wind speed in m/s (hover to see current wind gust speed)